|
CX2SA > KEPS 05.05.22 21:45z 602 Lines 29417 Bytes #1 (0) @ AMSAT
BID : ORB22125.N
Subj: 2Line Orbital Elements 22125.AMSAT
Path: SP7YDD<SR1BSZ<IW0QNL<ON0AR<OZ5BBS<CX2SA
Sent: 220505/2143Z @:CX2SA.SAL.URY.SOAM #:10242 [Salto] FBB7.00e $:ORB22125.N
From: CX2SA@CX2SA.SAL.URY.SOAM
To : KEPS@AMSAT
HR AMSAT ORBITAL ELEMENTS FOR AMATEUR SATELLITES IN NASA FORMAT
FROM WA5QGD FORT WORTH,TX May 5, 2022
BID: ORB22125.N
DECODE 2-LINE ELSETS WITH THE FOLLOWING KEY:
1 AAAAAU 00 0 0 BBBBB.BBBBBBBB .CCCCCCCC 00000-0 00000-0 0 DDDZ
2 AAAAA EEE.EEEE FFF.FFFF GGGGGGG HHH.HHHH III.IIII JJ.JJJJJJJJKKKKKZ
KEY: A-CATALOGNUM B-EPOCHTIME C-DECAY D-ELSETNUM E-INCLINATION F-RAAN
G-ECCENTRICITY H-ARGPERIGEE I-MNANOM J-MNMOTION K-ORBITNUM Z-CHECKSUM
TO ALL RADIO AMATEURS BT
AO-07
1 07530U 74089B 22125.49906741 -.00000035 00000-0 68657-4 0 9990
2 07530 101.9023 105.2379 0012534 123.0489 353.4398 12.53654575172088
UO-11
1 14781U 84021B 22125.49000715 .00001078 00000-0 13677-3 0 9997
2 14781 97.6162 114.8894 0010003 101.1095 259.1245 14.83596363 33675
LO-19
1 20442U 90005G 22125.44057995 .00000159 00000-0 74649-4 0 9990
2 20442 98.7905 89.6539 0010748 298.1506 61.8591 14.33049672686945
HUBBLE
1 20580U 90037B 22125.35692789 .00003897 00000-0 22050-3 0 9994
2 20580 28.4699 94.3275 0002390 291.1161 196.6038 15.10391449559694
MET-2/21
1 22782U 93055A 22125.57395038 .00000049 00000-0 30502-4 0 9992
2 22782 82.5520 48.2676 0023622 106.7041 66.2835 13.83851264448076
AO-27
1 22825U 93061C 22125.34838677 .00000133 00000-0 69105-4 0 9998
2 22825 98.8909 155.4662 0008641 170.0473 190.0881 14.30164107491990
IO-26
1 22826U 93061D 22125.31204648 .00000159 00000-0 78591-4 0 9998
2 22826 98.8853 155.3112 0009414 157.8443 202.3148 14.30508511492240
FO-29
1 24278U 96046B 22125.32497605 .00000012 00000-0 47280-4 0 9994
2 24278 98.5205 154.9352 0350907 35.3669 327.0209 13.53114349269777
NOAA-15
1 25338U 98030A 22125.55233348 .00000204 00000-0 10341-3 0 9994
2 25338 98.6480 155.6409 0011426 66.3110 293.9268 14.26118789247154
GO-32
1 25397U 98043D 22125.56007352 .00000082 00000-0 55381-4 0 9996
2 25397 98.8145 75.9230 0000770 168.3850 191.7346 14.23748631237321
ISS
1 25544U 98067A 22125.43344516 .00007947 00000-0 14734-3 0 9991
2 25544 51.6432 188.3271 0006638 67.7258 299.2035 15.49941064338558
NO-44
1 26931U 01043C 22125.52928743 .00000109 00000-0 73365-4 0 9999
2 26931 67.0501 169.1917 0007964 269.6575 90.3614 14.30691910 75269
SO-50
1 27607U 02058C 22125.57133104 .00001183 00000-0 18366-3 0 9993
2 27607 64.5552 73.1187 0075956 302.8614 56.5193 14.76061013 42042
CO-55
1 27844U 03031E 22125.44789914 .00000290 00000-0 14993-3 0 9990
2 27844 98.6802 133.7822 0009018 221.1951 138.8547 14.22428238977752
CO-57
1 27848U 03031J 22125.46789875 .00000240 00000-0 12833-3 0 9998
2 27848 98.6848 134.3300 0008706 236.6758 123.3586 14.21988384977577
RS-22
1 27939U 03042A 22125.57331067 .00000817 00000-0 15360-3 0 9997
2 27939 98.1858 266.3216 0012406 349.1475 10.9457 14.67288282994751
NOAA-18
1 28654U 05018A 22125.42848317 .00000230 00000-0 14804-3 0 9993
2 28654 98.9507 195.8950 0015395 93.8555 266.4377 14.12723460873902
CO-58
1 28895U 05043F 22125.60587385 .00001155 00000-0 22780-3 0 9992
2 28895 98.0999 257.6628 0015328 276.3607 83.5850 14.64255902881143
Falconsat-3
1 30776U 07006E 22125.54671623 .00049195 00000-0 83619-3 0 9990
2 30776 35.4302 180.7378 0000576 175.4806 184.5931 15.50367184842910
CO-65
1 32785U 08021C 22125.50381236 .00002452 00000-0 26330-3 0 9996
2 32785 97.6546 97.7275 0013363 23.7399 336.4433 14.89411648760094
AAUSAT2
1 32788U 08021F 22125.46663419 .00005402 00000-0 47273-3 0 9997
2 32788 97.5332 112.3218 0009210 268.0548 91.9620 14.97092769762008
DO-64
1 32789U 08021G 22125.50214659 .00019303 00000-0 11031-2 0 9998
2 32789 97.3422 153.3792 0012797 112.6363 247.6223 15.12664968765435
CO-66
1 32791U 08021J 22125.46969934 .00004299 00000-0 42454-3 0 9991
2 32791 97.6093 103.2371 0012070 341.3891 18.6886 14.92408923760781
RS-30
1 32953U 08025A 22125.56196207 .00000021 00000-0 80971-4 0 9997
2 32953 82.5067 210.5951 0018835 357.8704 2.2293 12.43109439633000
PRISM
1 33493U 09002B 22125.44116436 .00007741 00000-0 63645-3 0 9990
2 33493 98.2316 109.5699 0011510 311.6269 48.3966 14.99400190722530
NOAA-19
1 33591U 09005A 22125.49564145 .00000175 00000-0 11951-3 0 9998
2 33591 99.1521 158.7214 0013031 311.3524 48.6525 14.12558397682387
SRMSAT
1 37841U 11058D 22125.39315050 .00000434 00000-0 93344-4 0 9994
2 37841 19.9705 155.1985 0011679 230.4275 157.5773 14.10746057545157
HRBE
1 37855U 11061F 22125.48541210 .00019502 00000-0 86815-3 0 9992
2 37855 101.7037 221.9052 0157280 191.1371 168.6348 15.11095352574741
RS-40
1 38735U 12041C 22125.49973024 .00000019 00000-0 67613-4 0 9991
2 38735 82.4716 292.2780 0017959 103.9750 256.3330 12.42585418443184
ZACUBE-1
1 39417U 13066B 22125.43328277 .00001954 00000-0 24472-3 0 9999
2 39417 97.6338 98.8880 0057736 184.0476 176.0279 14.82168689456753
Delfi-N3xt
1 39428U 13066N 22125.54849474 .00004611 00000-0 71457-3 0 9998
2 39428 97.8127 61.7641 0119506 55.4815 305.7606 14.68898422452232
GOMX-1
1 39430U 13066Q 22125.48726497 .00001293 00000-0 23897-3 0 9991
2 39430 97.8123 35.1398 0149274 179.8125 180.3121 14.60068957450023
LO-74
1 39440U 13066AA 22125.43487973 .00002044 00000-0 28422-3 0 9994
2 39440 97.7230 84.8147 0077255 271.1678 88.0682 14.76876775453934
AO-73
1 39444U 13066AE 22125.48083235 .00002782 00000-0 33727-3 0 9999
2 39444 97.6220 101.3340 0057044 172.3045 187.9059 14.83209402455158
SPROUT
1 39770U 14029E 22125.28713923 .00008684 00000-0 89677-3 0 9995
2 39770 97.9365 241.9910 0007725 223.2484 136.8128 14.90382180431237
DTUSAT-2
1 40030U 14033W 22125.52842484 .00002507 00000-0 26724-3 0 9995
2 40030 97.9358 58.1349 0011294 187.3311 172.7743 14.89754514427250
EO-80
1 40032U 14033Y 22125.36543826 .00004264 00000-0 45060-3 0 9993
2 40032 97.9366 57.9842 0011202 188.7566 171.3458 14.89727742427208
HODOYOSHI-1
1 40299U 14070B 22125.54554344 .00005769 00000-0 22362-3 0 9997
2 40299 97.2452 194.9424 0010834 292.3008 174.7840 15.26467215416515
FIREBIRD FU3
1 40377U 15003B 22125.50102651 .00024188 00000-0 75063-3 0 9999
2 40377 99.1064 340.8813 0104517 170.1290 190.2031 15.28127878401850
FIREBIRD FU4
1 40378U 15003C 22125.39828257 .00033321 00000-0 10287-2 0 9999
2 40378 99.1068 340.9563 0104415 170.1475 190.1841 15.28222598401842
GRIFEX
1 40379U 15003D 22125.47424311 .00015449 00000-0 56028-3 0 9997
2 40379 99.1165 327.4222 0117915 210.7888 148.6391 15.22071689401082
XW-2A
1 40903U 15049E 22125.54665789 .00020647 00000-0 34888-3 0 9990
2 40903 97.1835 184.0644 0008401 275.9550 220.1062 15.51597914372602
XW-2C
1 40906U 15049H 22125.51602962 .00006513 00000-0 31738-3 0 9991
2 40906 97.4934 129.2869 0015223 143.1237 336.8360 15.18577640366400
XW-2D
1 40907U 15049J 22125.55223838 .00007390 00000-0 35382-3 0 9990
2 40907 97.4923 129.2702 0014790 138.4901 317.8182 15.19152964366453
LILACSAT-2
1 40908U 15049K 22125.51688859 .00003718 00000-0 19925-3 0 9990
2 40908 97.5159 126.5342 0016081 159.8978 317.4227 15.15511027365980
XW-2E
1 40909U 15049L 22125.51646815 .00011362 00000-0 48968-3 0 9990
2 40909 97.4667 133.6712 0013959 120.4915 39.1037 15.22647337366878
XW-2F
1 40910U 15049M 22125.54981925 .00011221 00000-0 49080-3 0 9999
2 40910 97.4744 132.8303 0015346 121.9457 336.9474 15.22128016366659
XW-2B
1 40911U 15049N 22125.51278509 .00007336 00000-0 35239-3 0 9997
2 40911 97.4911 129.8448 0014516 139.5108 340.7445 15.19046817366338
DCBB
1 40912U 15049P 22125.51176280 .00013229 00000-0 52942-3 0 9999
2 40912 97.4382 137.1444 0015437 94.7964 26.9424 15.25089383367203
TW-1A
1 40928U 15051D 22125.52224581 .00037740 00000-0 53637-3 0 9994
2 40928 97.0434 148.6459 0009258 168.2645 297.5584 15.56253650371554
IO-86
1 40931U 15052B 22124.55349837 .00001187 00000-0 75916-4 0 9994
2 40931 5.9981 122.2362 0013587 270.2269 89.6364 14.76788224356842
AO-85
1 40967U 15058D 22124.45090795 .00004164 00000-0 43596-3 0 3567
2 40967 64.7752 205.9624 0200514 214.2079 144.5815 14.77269488 54164
ATHENOXAT-1
1 41168U 15077C 22125.46271747 .00016083 00000-0 69232-3 0 9993
2 41168 14.9896 48.7974 0009820 352.2358 153.5389 15.19805788353754
ChubuSat-2
1 41338U 16012B 22125.51543559 .00002973 00000-0 21945-3 0 9993
2 41338 31.0031 297.2607 0013376 86.0534 274.1631 15.01202017341021
ChubuSat-3
1 41339U 16012C 22125.51067883 .00002713 00000-0 19919-3 0 9995
2 41339 31.0119 294.2444 0013202 93.3242 266.8898 15.01296871341024
Horyu-4
1 41340U 16012D 22124.81155281 .00003847 00000-0 27235-3 0 9998
2 41340 31.0047 277.7823 0013310 125.3804 234.8078 15.03011516341155
e-st@r-II
1 41459U 16025D 22125.43747739 .00013174 00000-0 57872-3 0 9991
2 41459 98.1816 287.4448 0147982 55.8617 305.6483 15.12644325330994
AAUSAT4
1 41460U 16025E 22125.44988863 .00018526 00000-0 73403-3 0 9993
2 41460 98.1769 293.2842 0129004 33.2055 327.7172 15.18013840331413
LO-87
1 41557U 16033B 22125.53015056 .00014720 00000-0 45493-3 0 9994
2 41557 97.3858 223.1963 0012210 165.5200 293.7330 15.33548633330807
NuSat2
1 41558U 16033C 22125.54697271 .00013530 00000-0 39297-3 0 9994
2 41558 97.4046 228.6759 0011593 154.7583 304.5400 15.35541622331069
Lapan A3
1 41603U 16040E 22125.54005596 .00001660 00000-0 78744-4 0 9998
2 41603 97.2103 164.4287 0012153 317.9312 184.8559 15.20539976325511
Pratham
1 41783U 16059A 22125.34913347 .00000715 00000-0 14657-3 0 9999
2 41783 97.9177 168.6212 0032281 311.7332 48.1111 14.63314909299328
TY-1
1 41844U 16066D 22125.52944762 .00014764 00000-0 51950-3 0 9996
2 41844 97.3915 137.7548 0015832 83.2757 68.1693 15.29314119305044
CAS-2T
1 41847U 16066G 22125.42786750 .00000978 00000-0 15729-3 0 9995
2 41847 98.5537 190.1342 0363618 338.7519 19.8889 14.38530441288167
EO-88
1 42017U 17008BX 22125.11870880 .00016219 00000-0 50804-3 0 9994
2 42017 97.2714 191.8988 0005874 57.6508 302.5303 15.33151979290433
CAS-4B
1 42759U 17034B 22125.57279877 .00005570 00000-0 33500-3 0 9997
2 42759 43.0178 208.9989 0008527 8.4024 128.4529 15.11582465269867
